Satellite: HRBE
Catalog number: 37855
Epoch time: 14324.86041049
Element set: 985
Inclination: 101.7086 deg
RA of node: 070.9614 deg
Eccentricity: 0.0208864
Arg of perigee: 320.8563 deg
Mean anomaly: 037.7689 deg
Mean motion: 14.92507537 rev/day
Decay rate: 1.0746e-04 rev/day^2
Epoch rev: 16602
Checksum: 324
Satellite: RS-39
Catalog number: 38051
Epoch time: 14288.65876392
Element set: 41
Inclination: 051.5964 deg
RA of node: 324.1908 deg
Eccentricity: 0.0006422
Arg of perigee: 269.6897 deg
Mean anomaly: 186.8903 deg
Mean motion: 16.43533377 rev/day
Decay rate: 7.0201582e-01 rev/day^2
Epoch rev: 15308
Checksum: 345
Satellite: E-STAR
Catalog number: 38079
Epoch time: 14324.54771658
Element set: 71
Inclination: 069.4333 deg
RA of node: 289.9060 deg
Eccentricity: 0.0212294
Arg of perigee: 124.1260 deg
Mean anomaly: 238.0254 deg
Mean motion: 15.51586698 rev/day
Decay rate: 2.49603e-03 rev/day^2
Epoch rev: 14728
Checksum: 321
Satellite: GOLIAT
Catalog number: 38085
Epoch time: 14324.72943157
Element set: 554
Inclination: 069.4358 deg
RA of node: 301.2786 deg
Eccentricity: 0.0252354
Arg of perigee: 129.7504 deg
Mean anomaly: 290.2035 deg
Mean motion: 15.40349966 rev/day
Decay rate: 1.96046e-03 rev/day^2
Epoch rev: 14700
Checksum: 313
Satellite: HORYU-2
Catalog number: 38340
Epoch time: 14323.87420259
Element set: 23
Inclination: 098.2850 deg
RA of node: 283.9271 deg
Eccentricity: 0.0013399
Arg of perigee: 046.8693 deg
Mean anomaly: 313.3633 deg
Mean motion: 14.73183764 rev/day
Decay rate: 4.794e-05 rev/day^2
Epoch rev: 13470
Checksum: 314
Satellite: RS-40
Catalog number: 38735
Epoch time: 14324.73167149
Element set: 785
Inclination: 082.4778 deg
RA of node: 189.9414 deg
Eccentricity: 0.0016329
Arg of perigee: 275.8204 deg
Mean anomaly: 084.1015 deg
Mean motion: 12.42563673 rev/day
Decay rate: 4.0e-07 rev/day^2
Epoch rev: 10502
Checksum: 304
Satellite: PROITERES
Catalog number: 38756
Epoch time: 14324.75057274
Element set: 423
Inclination: 098.2229 deg
RA of node: 055.6020 deg
Eccentricity: 0.0011071
Arg of perigee: 242.4022 deg
Mean anomaly: 117.6068 deg
Mean motion: 14.75288798 rev/day
Decay rate: 1.891e-05 rev/day^2
Epoch rev: 11826
Checksum: 298
Satellite: BEESAT-3
Catalog number: 39134
Epoch time: 14323.49027819
Element set: 771
Inclination: 064.8758 deg
RA of node: 006.3184 deg
Eccentricity: 0.0036321
Arg of perigee: 283.2411 deg
Mean anomaly: 076.4660 deg
Mean motion: 15.07647016 rev/day
Decay rate: 1.6125e-04 rev/day^2
Epoch rev: 8704
Checksum: 295
Satellite: BEESAT-2
Catalog number: 39136
Epoch time: 14324.55844571
Element set: 753
Inclination: 064.8757 deg
RA of node: 003.9652 deg
Eccentricity: 0.0036568
Arg of perigee: 282.9469 deg
Mean anomaly: 076.7569 deg
Mean motion: 15.06745209 rev/day
Decay rate: 1.3081e-04 rev/day^2
Epoch rev: 8718
Checksum: 346
Satellite: LO-75
Catalog number: 39382
Epoch time: 14295.69194059
Element set: 487
Inclination: 040.4713 deg
RA of node: 030.2705 deg
Eccentricity: 0.0002289
Arg of perigee: 341.7175 deg
Mean anomaly: 018.4586 deg
Mean motion: 16.19795749 rev/day
Decay rate: 7.301741e-02 rev/day^2
Epoch rev: 47082
Checksum: 345
Satellite: ZACUBE-1
Catalog number: 39417
Epoch time: 14324.72614900
Element set: 469
Inclination: 097.7597 deg
RA of node: 029.8772 deg
Eccentricity: 0.0063003
Arg of perigee: 095.1400 deg
Mean anomaly: 265.7006 deg
Mean motion: 14.78731742 rev/day
Decay rate: 3.662e-05 rev/day^2
Epoch rev: 5382
Checksum: 311
Satellite: TRITON-1
Catalog number: 39427
Epoch time: 14324.73820521
Element set: 320
Inclination: 097.7463 deg
RA of node: 022.5050 deg
Eccentricity: 0.0118598
Arg of perigee: 112.0028 deg
Mean anomaly: 249.3827 deg
Mean motion: 14.65890005 rev/day
Decay rate: 2.540e-05 rev/day^2
Epoch rev: 5332
Checksum: 275
Satellite: DELFIN3XT
Catalog number: 39428
Epoch time: 14324.73586064
Element set: 324
Inclination: 097.7462 deg
RA of node: 021.2704 deg
Eccentricity: 0.0128298
Arg of perigee: 115.3639 deg
Mean anomaly: 246.0913 deg
Mean motion: 14.64113787 rev/day
Decay rate: 5.053e-05 rev/day^2
Epoch rev: 5323
Checksum: 301
Satellite: GOMX-1
Catalog number: 39430
Epoch time: 14324.74844447
Element set: 999
Inclination: 097.7368 deg
RA of node: 017.6610 deg
Eccentricity: 0.0156899
Arg of perigee: 125.6483 deg
Mean anomaly: 235.9415 deg
Mean motion: 14.57315201 rev/day
Decay rate: 2.953e-05 rev/day^2
Epoch rev: 5301
Checksum: 326
Satellite: MO-76
Catalog number: 39436
Epoch time: 14323.76559411
Element set: 410
Inclination: 097.7677 deg
RA of node: 035.2820 deg
Eccentricity: 0.0024366
Arg of perigee: 093.6557 deg
Mean anomaly: 266.7451 deg
Mean motion: 14.95167853 rev/day
Decay rate: 3.5209e-04 rev/day^2
Epoch rev: 5407
Checksum: 336
Satellite: LO-74
Catalog number: 39440
Epoch time: 14323.79906578
Element set: 316
Inclination: 097.7555 deg
RA of node: 026.0658 deg
Eccentricity: 0.0084840
Arg of perigee: 103.8574 deg
Mean anomaly: 257.2092 deg
Mean motion: 14.73624620 rev/day
Decay rate: 3.133e-05 rev/day^2
Epoch rev: 5349
Checksum: 324
Satellite: PUCPSAT-1
Catalog number: 39442
Epoch time: 14323.80307355
Element set: 315
Inclination: 097.7662 deg
RA of node: 033.5563 deg
Eccentricity: 0.0035465
Arg of perigee: 093.9900 deg
Mean anomaly: 266.5372 deg
Mean motion: 14.87019785 rev/day
Decay rate: 6.825e-05 rev/day^2
Epoch rev: 5273
Checksum: 319
Satellite: SHINAISAT
Catalog number: 39572
Epoch time: 14324.81721274
Element set: 429
Inclination: 064.9859 deg
RA of node: 209.5809 deg
Eccentricity: 0.0012303
Arg of perigee: 257.0557 deg
Mean anomaly: 102.9247 deg
Mean motion: 16.20910251 rev/day
Decay rate: 2.345646e-02 rev/day^2
Epoch rev: 4186
Checksum: 307
Satellite: TEIKYOSAT
Catalog number: 39576
Epoch time: 14297.85867254
Element set: 437
Inclination: 064.9818 deg
RA of node: 300.5833 deg
Eccentricity: 0.0008491
Arg of perigee: 317.3597 deg
Mean anomaly: 044.3862 deg
Mean motion: 16.45008906 rev/day
Decay rate: 9.345816e-02 rev/day^2
Epoch rev: 3769
Checksum: 359
Satellite: CO-77
Catalog number: 39577
Epoch time: 14244.78324653
Element set: 379
Inclination: 064.9920 deg
RA of node: 123.7668 deg
Eccentricity: 0.0014904
Arg of perigee: 269.7208 deg
Mean anomaly: 091.1897 deg
Mean motion: 16.43552757 rev/day
Decay rate: 1.0543803e-01 rev/day^2
Epoch rev: 2938
Checksum: 363
Satellite: SPROUT
Catalog number: 39770
Epoch time: 14324.01910950
Element set: 197
Inclination: 097.8722 deg
RA of node: 058.8218 deg
Eccentricity: 0.0010626
Arg of perigee: 157.3111 deg
Mean anomaly: 202.8569 deg
Mean motion: 14.83050972 rev/day
Decay rate: 2.630e-05 rev/day^2
Epoch rev: 2662
Checksum: 289
Satellite: POPSAT-HIP1
Catalog number: 40028
Epoch time: 14324.84813919
Element set: 473
Inclination: 097.9691 deg
RA of node: 219.7694 deg
Eccentricity: 0.0015375
Arg of perigee: 137.8783 deg
Mean anomaly: 222.3627 deg
Mean motion: 14.85753398 rev/day
Decay rate: 4.617e-05 rev/day^2
Epoch rev: 2283
Checksum: 342
Satellite: EO-80
Catalog number: 40032
Epoch time: 14324.67017225
Element set: 459
Inclination: 097.9644 deg
RA of node: 219.4615 deg
Eccentricity: 0.0013252
Arg of perigee: 133.3666 deg
Mean anomaly: 226.8696 deg
Mean motion: 14.85500904 rev/day
Decay rate: 4.202e-05 rev/day^2
Epoch rev: 2281
Checksum: 292
Satellite: VELOX-1
Catalog number: 40057
Epoch time: 14324.77883388
Element set: 460
Inclination: 098.2374 deg
RA of node: 034.4200 deg
Eccentricity: 0.0011801
Arg of perigee: 178.4471 deg
Mean anomaly: 181.6781 deg
Mean motion: 14.74604676 rev/day
Decay rate: 4.394e-05 rev/day^2
Epoch rev: 2115
Checksum: 297
Satellite: DAURIA DX 1
Catalog number: 40071
Epoch time: 14324.77799886
Element set: 433
Inclination: 098.3850 deg
RA of node: 022.3991 deg
Eccentricity: 0.0008466
Arg of perigee: 179.4070 deg
Mean anomaly: 180.7139 deg
Mean motion: 14.79805176 rev/day
Decay rate: 2.053e-05 rev/day^2
Epoch rev: 1996
Checksum: 329
Satellite: UKUBE-1
Catalog number: 40074
Epoch time: 14324.75745962
Element set: 434
Inclination: 098.3857 deg
RA of node: 022.6048 deg
Eccentricity: 0.0004562
Arg of perigee: 182.5039 deg
Mean anomaly: 177.6148 deg
Mean motion: 14.80975403 rev/day
Decay rate: 4.246e-05 rev/day^2
Epoch rev: 1997
Checksum: 319
Satellite: CHASQUI-1
Catalog number: 40117
Epoch time: 14324.48490703
Element set: 292
Inclination: 051.6417 deg
RA of node: 040.4295 deg
Eccentricity: 0.0007759
Arg of perigee: 348.7815 deg
Mean anomaly: 104.5472 deg
Mean motion: 15.67304315 rev/day
Decay rate: 1.83063e-03 rev/day^2
Epoch rev: 1460
Checksum: 285
Satellite: HODOYOSHI-1
Catalog number: 40299
Epoch time: 14324.82867557
Element set: 46
Inclination: 097.4745 deg
RA of node: 044.0745 deg
Eccentricity: 0.0015121
Arg of perigee: 135.0830 deg
Mean anomaly: 342.7319 deg
Mean motion: 15.17076075 rev/day
Decay rate: 8.816e-05 rev/day^2
Epoch rev: 219
Checksum: 299
Satellite: CHUBUSAT-1
Catalog number: 40300
Epoch time: 14324.78259531
Element set: 46
Inclination: 097.4720 deg
RA of node: 043.9782 deg
Eccentricity: 0.0024702
Arg of perigee: 135.7970 deg
Mean anomaly: 338.8614 deg
Mean motion: 15.14938082 rev/day
Decay rate: 9.555e-05 rev/day^2
Epoch rev: 218
Checksum: 299
Satellite: QSAT-EOS
Catalog number: 40301
Epoch time: 14324.80781595
Element set: 48
Inclination: 097.4693 deg
RA of node: 043.9420 deg
Eccentricity: 0.0036224
Arg of perigee: 135.0561 deg
Mean anomaly: 342.2891 deg
Mean motion: 15.12326151 rev/day
Decay rate: 8.071e-05 rev/day^2
Epoch rev: 219
Checksum: 268
Satellite: TSUBAME
Catalog number: 40302
Epoch time: 14324.89935826
Element set: 46
Inclination: 097.4669 deg
RA of node: 043.9761 deg
Eccentricity: 0.0047149
Arg of perigee: 135.8201 deg
Mean anomaly: 358.5500 deg
Mean motion: 15.10075706 rev/day
Decay rate: 1.2251e-04 rev/day^2
Epoch rev: 219
Checksum: 287
/EX